Other Public Products
Issued by NWS Charleston, SC

Current Version | Previous Version | Graphics & Text | Print | Product List | Glossary On
Versions: 1 2 3 4 5 6 7 8 9 10 11 12 13 14 15 16 17 18 19 20 21 22 23 24 25 26 27 28 29 30 31 32 33 34 35 36 37 38 39 40 41 42 43 44 45 46 47 48 49 50
753
FPUS82 KCHS 111326
OPUCHS

TEST...KCHS/KSAV Gateway Observations...TEST
National Weather Service Charleston SC
800 AM EST MON DEC 11 2017

NOTE: "fair" indicates few or no clouds below 12,000 feet with no
significant weather and/or obstructions to visibility.

SCZ050-WAZ558-NCZ071-TXZ119-213-PAZ071-DCZ001-FLZ074-172-MI076-
NYZ176-178-MAZ016-IL014-TNZ027-NJZ106-GAZ044-MD014-111400-

...Gateway Observations for Charleston International...

CITY           SKY/WX    TMP DP  RH WIND       PRES   REMARKS
Chas Airport   CLEAR     35  29  78 W6        30.21R WCI  30
Seattle        FOG       34  33  96 CALM      30.33R VSB 1/8
Charlotte      CLEAR     30  25  81 CALM      30.14R
Dallas DFW     CLOUDY    39  27  62 SW7       30.24R WCI  34
Dallas Love    CLOUDY    42  28  57 CALM      30.27R
Philladelphia  CLOUDY    35  29  78 SW8       30.06R WCI  29
Wash National  PTCLDY    35  29  78 S6        30.09R WCI  30
Baltimore      MOCLDY    36  28  73 CALM      30.07R
Miami          SUNNY     53  41  63 NW7       30.27R
Detroit        CLOUDY    26  17  68 CALM      30.06R
Newark         PTCLDY    32  27  81 W9        30.04R WCI  24
Laguardia      MOCLDY    35  25  66 SW12      30.02R WCI  27
J F K          MOCLDY    34  29  82 SW13      30.04S WCI  25
Boston Logan   CLOUDY    33  23  66 SW14G23   29.97R WCI  23
Ft. Lauderdale MOSUNNY   51  39  63 N8        30.26S
Chicago O`Hare CLOUDY    28  20  71 S7        29.96S WCI  21
Chicago Midway CLOUDY    29  21  72 S9        29.97F WCI  20
Houston Bush   PTCLDY    44  36  73 SW5       30.32S
Houston Hobby  PTCLDY    40  37  89 SW6       30.33S WCI  36
Nashville      CLEAR     31  25  78 S5        30.15S WCI  26
Atlanta        CLEAR     31  28  89 W6        30.19R WCI  25

$$

GAZ044-118-TXZ119-213-NCZ071-DCZ001-MDZ014-506-PAZ021-071-NJZ106-
NYZ176-178-MAZ106-OHZ011-021-055-MIZ076-KYZ091-ILZ014-INZ047-
MNZ060-ONZ431-111400-

...Gateway Observations for Savannah International...

CITY           SKY/WX    TMP DP  RH WIND       PRES   REMARKS
Savannah Arpt  CLEAR     33  29  85 W5        30.24F WCI  29
Atlanta        CLEAR     31  28  89 W6        30.19R WCI  25
Charlotte      CLEAR     30  25  81 CALM      30.14R
Dallas DFW     CLOUDY    39  27  62 SW7       30.24R WCI  34
Houston Bush   PTCLDY    44  36  73 SW5       30.32S
Wash National  PTCLDY    35  29  78 S6        30.09R WCI  30
Wash Dulles    MOCLDY    33  29  85 CALM      30.08R
Baltimore      MOCLDY    36  28  73 CALM      30.07R
Philadelphia   CLOUDY    35  29  78 SW8       30.06R WCI  29
Newark         PTCLDY    32  27  81 W9        30.04R WCI  24
Laguardia      MOCLDY    35  25  66 SW12      30.02R WCI  27
J F K          MOCLDY    34  29  82 SW13      30.04S WCI  25
Boston         CLOUDY    33  23  66 SW14G23   29.97R WCI  23
Pittsburg      CLOUDY    32  18  56 W7        30.02F WCI  26
Akron          CLOUDY    29  18  63 SW5       30.03S WCI  24
Cleveland      CLOUDY    29  21  72 SW6       30.05F WCI  23
Cincinnati     CLOUDY    23  22  96 S3        30.08S
Columbus       CLOUDY    30  23  75 SW6       30.07F WCI  24
Detroit        CLOUDY    26  17  68 CALM      30.06R
Chicago O`Hare CLOUDY    28  20  71 S7        29.96S WCI  21
Minneapolis    FRZ RAIN  30  29  96 CALM      29.71F FOG
Indianapolis   CLOUDY    27  22  81 S7        30.04F WCI  19
Toronto Canada FLURRIES  19  12  73 N5        30.02R WCI  13

$$




USA.gov is the U.S. government's official web portal to all federal, state and local government web resources and services.